カタログに戻る

ONEWEB-0120

運用中通信PO
NORAD 47266·PAYLOAD·🇬🇧 United Kingdom

打ち上げ Dec 18, 2020 から Vostochny Cosmodrome

Loading…

次のパス (今後24時間)

TLE

最新Source: CelesTrak SupGP

元期: Sep 14, 2026, 23:13 UTC

1 47266C 20100J   26257.96750418  .00000889  00000+0  24753-2 0  2574
2 47266  87.8986 332.8425 0001703  99.0381 295.9252 13.12444750    17

AllMySatでONEWEB-0120をリアルタイム追跡

Download on the App Store